Location: ?????
(42.2640°N, 43.4211°E)
Time: 14:05:59
(UTC+00:00)

Cosmos 1553 Rocket - Pass Details

Date: 07 August 2020
Orbit: 942 x 1007 km, 82.9° (Epoch: 19 September)

Event Time Altitude Azimuth Distance (km) Brightness Sun altitude
Exits shadow 00:35:27 - 175° (S) 3,503 6.6 -15.0°
Reaches altitude 10° 00:37:42 10° 172° (S) 2,652 6.0 -14.7°
Maximum altitude 00:43:39 63° 93° (E) 1,051 4.4 -13.9°
Drops below altitude 10° 00:49:39 10° 14° (NNE) 2,678 7.1 -13.0°
Sets 00:52:11 0° 11° (NNE) 3,633 7.8 -12.6°
